{"data":{"norad_id":66988,"intl_designator":"2025-289A","name":"YAOGAN-47","alt_names":[],"object_type":"PAYLOAD","status":"ACTIVE","operator":null,"country":"PRC","launch_date":"2025-12-09","launch_site_code":"JSC","launch_vehicle":null,"mission":null,"orbit_class":"UNKNOWN","rcs_meters":null,"size_class":null,"mass_kg":null,"dimensions":null,"purposes":[],"wikipedia_slug":null,"has_3d_model":false,"image_url":null,"decayed_at":null,"tle_current":{"epoch":"2026-05-25T03:43:10.112160Z","epoch_age_seconds":57800,"freshness":"FRESH","line1":"1 66988U 25289A   26145.15497815  .00005076  00000+0  21450-3 0  9993","line2":"2 66988  97.5027 215.4753 0003500 118.2553 241.9037 15.23689916 25428","mean_motion":15.23689916,"eccentricity":0.00035,"inclination_deg":97.5027,"raan_deg":215.4753,"arg_perigee_deg":118.2553,"mean_anomaly_deg":241.9037,"bstar":0.0002145,"rev_number":2542,"period_min":94.507418135331,"perigee_km":492.31668168986,"apogee_km":497.12768311754,"semimajor_km":6872.8591824037,"source":"CELESTRAK","updated_at":"2026-05-25T13:38:06.636910Z"}}}